Location: Bratislava
(0.0000°N, 17.1167°E)
Time: 04:37:05
(UTC+01:00)

ARGOS - Pass Details

Date: 24 January 2021
Orbit: 821 x 834 km, 98.4° (Epoch: 06 March)

Event Time Altitude Azimuth Distance (km) Brightness Sun altitude
Rises 18:42:48 0° 147° (SSE) 3,350 6.2 -9.2°
Reaches altitude 10° 18:45:27 10° 136° (SE) 2,415 5.3 -9.9°
Maximum altitude 18:49:59 28° 77° (ENE) 1,480 3.9 -10.9°
Drops below altitude 10° 18:54:30 10° 19° (NNE) 2,407 5.2 -12.0°
Sets 18:57:07 0° 8° (N) 3,338 6.0 -12.6°
